sat.trackr.live / text

‹ back to catalog

KUIPER-00130

NORAD 65959 · 2025-228N

PAYLOAD ACTIVE UNKNOWN

§ Identity

Operator
Country
US
Launch date
2025-10-14
Launch site
AFETR
Launch vehicle
Mass (kg)
RCS (m²)

External: N2YO · Heavens-Above · Gunter

§ Orbital elements

Epoch: 2026-05-25T00:21:24.102720Z

Period
97.30 min
Inclination
51.9044°
Eccentricity
0.0000857
Mean motion
14.79937979 rev/d
Perigee alt
628.9 km
Apogee alt
630.1 km
Semi-major
7,007.7 km
B*
2.5260e-4
RAAN
13.1197°
Arg perigee
103.7229°
Mean anomaly
256.3828°
Rev number
2,496

§ Raw data

KUIPER-001301 65959U 25228N   26145.01486230  .00001705  00000+0  25260-3 0  99952 65959  51.9044  13.1197 0000857 103.7229 256.3828 14.79937979 24965

JSON: /api/v1/satellites/65959 · /tle

For live sub-satellite position, see the globe view (requires WebGL).

§ Visibility from observer

Set your observer location to see the next 7 days of passes ≥ 10°. The values pass through the URL so the page stays shareable.

No JS? Fill the form by hand. The geolocation button needs JavaScript.